Eau Claire, WI

12:11 PM CST on December 16, 2017 (GMT -0600)
Chippewa Valley Regional

Weather History for KEAU - May, 2013

Change the Weather History Date:

Saturday, May 11, 2013

  Actual Average Record
Temperature  
Mean Temperature 46 °F 56 °F  
Max Temperature 53 °F 69 °F 89 °F (1922)
Min Temperature 38 °F 44 °F 28 °F (1946)
Degree Days  
Heating Degree Days 19 9  
Month to date heating degree days 183 119  
Since 1 July heating degree days 8112 7759  
Cooling Degree Days 0 1  
Month to date cooling degree days 0 5  
Year to date cooling degree days 3 9  
Moisture  
Dew Point 29 °F    
Average Humidity 57    
Maximum Humidity 80    
Minimum Humidity 34    
Precipitation  
Precipitation 0.02 in 0.10 in 1.68 in (1999)
Month to date precipitation 2.81 1.18  
Year to date precipitation 13.58 7.36  
Snow  
Snow 0.00 in 0.00 in 0.00 in ()
Month to date snowfall 9.3 0.2  
Since 1 July snowfall 84.3 47.0  
Snow Depth 0.00 in    
Sea Level Pressure  
Sea Level Pressure 29.99 in    
Wind  
Wind Speed 15 mph (NW)    
Max Wind Speed 32 mph    
Max Gust Speed 38 mph    
Visibility 10 miles    
Events Rain    
T = Trace of Precipitation, MM = Missing Value Source: NWS Daily Summary

Daily Weather History Graph

Daily Weather History Graph

Search for Another Location

Airport or City:

Trip Planner

Search our weather history database for the weather conditions in past years. The results will help you decide how hot, cold, wet, or windy it might be!

Date:

Astronomy

May. 11, 2013 Rise Set
Actual Time 5:41 AM CDT 8:23 PM CDT
Civil Twilight 5:08 AM CDT 8:57 PM CDT
Nautical Twilight 4:25 AM CDT 9:40 PM CDT
Astronomical Twilight 3:36 AM CDT 10:29 PM CDT
Moon 6:48 AM CDT (5/11) 10:05 PM CDT (5/11)
Length of Visible Light 15h 49m
Length of Day
14h 42m
Waxing Crescent, 3% of the Moon is Illuminated
May 11
Waxing Crescent
May 17
First Quarter
May 24
Full
May 31
Last Quarter
Jun 8
New

Hourly Weather History & Observations

Time (CDT) Temp. Windchill Dew Point Humidity Pressure Visibility Wind Dir Wind Speed Gust Speed Precip Events Conditions
12:56 AM 51.1 °F - 39.0 °F 63% 29.86 in 10.0 mi WSW 5.8 mph - 0.00 in Rain Light Rain
1:56 AM 53.1 °F - 36.0 °F 52% 29.84 in 10.0 mi Variable 3.5 mph - 0.01 in Rain Light Rain
2:56 AM 48.9 °F - 42.1 °F 77% 29.84 in 10.0 mi SW 3.5 mph - 0.01 in Rain Light Rain
3:56 AM 46.9 °F - 37.0 °F 68% 29.87 in 10.0 mi North 16.1 mph 27.6 mph 0.00 in   Overcast
4:56 AM 46.0 °F 40.6 °F 37.0 °F 71% 29.90 in 10.0 mi NNW 11.5 mph 20.7 mph N/A   Overcast
5:09 AM 46.4 °F 41.1 °F 35.6 °F 66% 29.90 in 10.0 mi North 11.5 mph 20.7 mph N/A   Overcast
5:39 AM 44.6 °F 38.8 °F 35.6 °F 71% 29.91 in 10.0 mi North 11.5 mph - N/A   Mostly Cloudy
5:56 AM 43.0 °F 37.2 °F 35.1 °F 74% 29.92 in 10.0 mi NNW 10.4 mph - N/A   Mostly Cloudy
6:56 AM 39.9 °F 32.5 °F 30.9 °F 70% 29.96 in 10.0 mi NW 12.7 mph 21.9 mph N/A   Partly Cloudy
7:11 AM 39.2 °F 31.2 °F 30.2 °F 70% 29.96 in 10.0 mi NNW 13.8 mph 20.7 mph N/A   Mostly Cloudy
7:45 AM 39.2 °F 29.0 °F 28.4 °F 65% 29.97 in 10.0 mi NNW 21.9 mph 33.4 mph N/A   Mostly Cloudy
7:56 AM 39.9 °F 29.5 °F 28.0 °F 63% 29.98 in 10.0 mi NW 24.2 mph 33.4 mph N/A   Mostly Cloudy
8:56 AM 43.0 °F 34.5 °F 28.0 °F 56% 29.99 in 10.0 mi NNW 19.6 mph 26.5 mph N/A   Partly Cloudy
9:56 AM 45.0 °F 37.1 °F 27.0 °F 49% 29.99 in 10.0 mi NNW 19.6 mph 29.9 mph N/A   Partly Cloudy
10:56 AM 46.0 °F 39.0 °F 25.0 °F 44% 30.01 in 10.0 mi NW 17.3 mph 29.9 mph N/A   Mostly Cloudy
11:56 AM 51.1 °F - 25.0 °F 36% 30.01 in 10.0 mi NNW 17.3 mph 32.2 mph N/A   Mostly Cloudy
12:56 PM 46.9 °F - 25.0 °F 42% 30.02 in 10.0 mi WNW 25.3 mph 34.5 mph N/A   Mostly Cloudy
1:56 PM 48.0 °F - 30.0 °F 50% 30.03 in 10.0 mi NW 17.3 mph 26.5 mph 0.00 in   Partly Cloudy
2:56 PM 48.9 °F - 26.1 °F 41% 30.03 in 10.0 mi NW 16.1 mph 26.5 mph 0.00 in   Partly Cloudy
3:56 PM 46.9 °F - 25.0 °F 42% 30.05 in 10.0 mi NW 18.4 mph 31.1 mph 0.00 in   Overcast
4:56 PM 48.9 °F - 21.9 °F 35% 30.05 in 10.0 mi NW 20.7 mph 28.8 mph N/A   Mostly Cloudy
5:56 PM 46.9 °F - 21.9 °F 37% 30.07 in 10.0 mi NW 20.7 mph 31.1 mph N/A   Overcast
6:56 PM 46.9 °F - 21.9 °F 37% 30.07 in 10.0 mi NW 19.6 mph 26.5 mph N/A   Overcast
7:56 PM 46.0 °F 38.5 °F 23.0 °F 40% 30.08 in 10.0 mi NW 19.6 mph 28.8 mph N/A   Overcast
8:56 PM 44.1 °F 38.6 °F 21.9 °F 42% 30.09 in 10.0 mi NW 10.4 mph 19.6 mph N/A   Overcast
9:56 PM 44.1 °F 39.0 °F 23.0 °F 43% 30.11 in 10.0 mi NNW 9.2 mph 19.6 mph N/A   Overcast
10:56 PM 42.1 °F 36.1 °F 27.0 °F 55% 30.12 in 10.0 mi North 10.4 mph - N/A   Overcast
11:56 PM 41.0 °F 36.4 °F 26.1 °F 55% 30.12 in 10.0 mi NNW 6.9 mph - N/A   Mostly Cloudy